Location: Aranbee
(34.0885°N, 118.2342°W)
Time: 10:58:43
(UTC+00:00)

Courier 1B Rocket - Pass Details

Date: 02 December 2020
Orbit: 920 x 1202 km, 28.2° (Epoch: 19 January)

Event Time Altitude Azimuth Distance (km) Brightness Sun altitude
Exits shadow 11:42:29 39° 164° (SSE) 1,700 6.2 -36.5°
Maximum altitude 11:42:35 39° 162° (SSE) 1,700 6.3 -36.5°
Drops below altitude 10° 11:49:44 10° 97° (E) 3,128 8.4 -35.0°
Sets 11:52:46 0° 90° (E) 4,084 9.3 -34.3°
